Probability
0 0 0 0 0 0 0 0 0 0 0 0 0 0 0 0 0 0 0 0 0 0 0 0 0 0 0 0 0 0 0 0 0 0 0 0 0 0 0 0 0 0 1 2 2 1 1 2 2
0 0 0 0 0 0 0 0 0 0 0 0 0 0 0 0 0 0 0 0 0 0 0 0 0 0 0 0 0 0 0 0 0 0 0 0 0 0 0 0 0 0 0 1 1 0 1 1 2
0 0 0 0 0 0 0 0 0 0 0 0 0 0 0 0 0 0 0 0 0 0 0 0 0 0 0 0 0 0 0 0 0 0 0 0 0 0 0 0 0 0 0 0 0 0 0 1 1
0 0 0 0 0 0 0 0 0 0 0 0 0 0 0 0 0 0 0 0 0 0 0 0 0 0 0 0 0 0 0 0 0 0 0 0 0 0 0 0 0 0 0 0 0 0 0 0 1
0 0 0 0 0 0 0 0 0 0 0 0 0 0 0 0 0 0 0 0 0 0 0 0 0 0 0 0 0 0 0 0 0 0 0 0 0 0 0 0 0 0 0 0 0 0 0 0 0
0 0 0 0 0 0 0 0 0 0 0 0 0 0 0 0 0 0 0 0 0 0 0 0 0 0 0 0 0 0 0 0 0 0 0 0 0 0 0 0 0 0 0 0 0 0 0 0 0
0 0 0 0 0 0 0 0 0 0 0 0 0 0 0 0 0 0 0 0 0 0 0 0 0 0 0 0 0 0 0 0 0 0 0 0 0 0 0 0 0 0 0 0 0 0 0 0 0
0 0 0 0 0 0 0 0 0 0 0 0 0 0 0 0 0 0 0 0 0 0 0 0 0 0 0 0 0 0 0 0 0 0 0 0 0 0 0 0 0 0 0 0 0 0 0 0 0
0 0 0 0 0 0 0 0 0 0 0 0 0 0 0 0 0 0 0 0 0 0 0 0 0 0 0 0 0 0 0 0 0 0 0 0 0 0 0 0 0 0 0 0 0 0 0 0 0
0 0 0 0 0 0 0 0 0 0 0 0 0 0 0 0 0 1 0 0 0 0 0 0 0 0 0 0 0 0 0 0 0 0 0 0 0 0 0 0 0 0 0 0 0 0 0 0 0
0 0 0 0 0 0 0 0 0 0 0 0 0 0 0 0 0 0 0 0 0 0 0 0 0 0 0 0 0 0 0 0 0 0 0 0 0 0 0 0 0 0 0 0 0 0 0 0 0
0 0 0 0 0 0 0 0 0 0 0 0 0 0 0 0 0 0 0 0 0 0 0 0 0 0 0 0 0 0 0 0 0 0 0 0 0 0 0 0 0 0 0 0 0 0 0 0 0
0 0 0 0 0 0 0 0 0 0 0 0 0 0 0 0 0 0 0 0 0 0 0 1 1 0 0 0 0 0 0 0 0 0 0 0 0 0 0 0 0 0 0 0 0 0 0 0 0
0 0 0 0 0 0 0 0 0 0 0 0 0 0 0 0 0 0 0 0 0 1 3 3 2 1 0 0 0 0 0 0 0 0 0 0 0 0 0 0 0 0 0 0 0 0 0 0 0
0 0 0 0 0 0 0 0 0 0 0 0 0 0 0 0 0 0 0 0 0 3 7 8 6 3 1 1 0 0 0 0 0 0 0 0 0 0 0 0 0 0 0 0 0 0 0 0 0
0 0 0 0 0 0 0 0 0 0 0 0 0 0 0 0 0 0 0 0 0 3 9 11 10 7 4 3 1 0 0 0 0 0 0 0 0 0 0 0 0 0 0 0 0 0 0 0 0
0 0 0 0 0 0 0 0 0 0 0 0 0 0 0 0 0 0 0 0 0 2 6 10 11 10 7 5 3 1 0 0 0 0 0 0 0 0 0 0 0 0 0 0 0 0 0 0 0
0 0 0 0 0 0 0 0 0 0 0 0 0 0 0 0 0 0 0 0 0 2 4 8 11 11 10 9 5 2 0 0 0 0 0 0 0 0 0 0 0 0 0 0 0 0 0 0 0
0 0 0 0 0 0 0 0 0 0 0 0 0 0 0 0 0 0 1 1 2 4 6 9 13 16 19 18 13 6 2 1 0 0 0 0 0 0 0 0 0 0 0 0 0 0 0 0 0
0 0 0 0 0 0 0 0 0 0 0 0 0 0 0 0 1 1 3 6 10 12 15 18 22 29 33 32 27 18 10 5 1 0 0 0 0 0 0 0 0 0 0 0 0 0 0 0 0
0 0 0 0 0 0 0 0 0 0 0 0 0 0 0 1 3 6 11 19 27 31 33 35 41 46 48 48 45 35 22 11 3 1 0 0 0 0 0 0 0 0 0 0 0 0 0 0 0
0 0 0 0 0 0 0 0 0 0 0 0 0 0 0 2 6 12 20 32 43 49 50 53 59 62 61 60 56 45 29 13 4 1 0 0 0 0 0 0 0 0 0 0 0 0 0 0 0
0 0 0 0 0 0 0 0 0 0 0 0 0 0 1 3 7 15 25 37 47 55 59 63 68 69 66 60 51 38 24 10 3 1 0 0 0 0 0 0 0 0 0 0 0 0 0 0 0
0 0 0 0 0 0 0 0 0 0 0 0 0 0 1 2 6 13 23 35 46 56 62 63 64 62 58 49 37 25 13 5 2 0 0 0 0 0 0 0 0 0 0 0 0 0 0 0 0
0 0 0 0 0 0 0 0 0 0 0 0 0 0 0 1 3 9 21 33 43 52 55 53 49 45 40 33 23 12 6 3 1 0 0 0 0 0 0 0 0 0 0 0 0 0 0 0 0
0 0 0 0 0 0 0 0 0 0 0 0 0 0 0 0 2 7 16 26 32 36 38 35 28 22 18 13 8 4 1 1 1 0 0 0 0 0 0 0 0 0 0 0 0 0 0 0 0
0 0 0 0 0 0 0 0 0 0 0 0 0 0 0 0 2 4 9 14 18 19 19 16 12 7 4 2 1 0 0 0 0 0 0 0 0 0 0 0 0 0 0 0 0 0 0 0 0
0 0 0 0 0 0 0 0 0 0 0 0 0 0 0 0 1 1 3 5 7 8 7 6 4 2 0 1 1 0 0 0 0 0 0 0 0 0 0 0 0 0 0 0 0 0 0 0 0
0 0 0 0 0 0 0 0 0 0 0 0 0 0 0 0 0 0 0 1 2 2 1 1 1 1 1 2 2 1 0 0 0 0 0 0 0 0 0 0 0 0 0 0 0 0 0 0 0
0 0 0 0 0 0 0 0 0 0 0 0 0 0 0 0 0 0 0 0 0 0 0 0 1 0 1 2 3 2 1 0 0 0 0 0 0 0 0 0 0 0 0 0 0 0 0 0 0
Wind_Speed
6 2 2 2 5 5 1 1 4 2 4 4 8 10 8 5 3 4 4 13 15 13 10 12 14 13 13 12 12 12 12 12 12 12 12 12 12 11 11 10 10 10 10 10 10 10 10 10 9
3 1 3 3 5 3 0 2 5 3 7 9 9 8 7 4 5 7 6 14 16 14 10 10 14 13 12 12 11 11 11 11 11 11 11 12 11 11 10 10 10 10 9 10 10 10 10 10 10
3 1 2 4 2 4 3 4 5 4 7 7 5 4 6 6 5 5 10 17 15 13 10 11 14 13 12 12 11 11 11 11 11 11 11 11 11 10 10 10 9 9 9 9 9 9 9 9 9
1 3 4 3 2 4 6 5 4 6 6 5 7 5 4 3 4 9 17 16 14 12 10 11 15 13 12 12 11 11 10 10 10 10 10 11 10 10 10 9 9 9 9 9 8 8 8 8 8
2 4 4 3 3 1 3 4 5 6 5 5 8 6 4 3 11 17 17 15 14 11 10 11 14 13 12 12 11 11 10 10 10 10 10 10 10 10 9 9 9 9 8 8 7 6 7 7 7
4 4 4 3 3 0 1 4 6 7 7 8 8 6 2 4 11 14 15 13 13 13 11 10 14 14 13 12 12 11 11 11 11 11 11 10 10 10 9 9 8 8 8 7 5 5 4 5 6
4 3 1 3 4 1 2 4 7 7 7 7 9 7 4 5 9 13 14 12 12 12 10 8 8 9 12 13 12 12 12 12 12 11 11 11 10 10 9 8 8 8 7 6 5 3 3 3 4
4 4 2 3 3 2 0 3 6 8 6 8 8 10 8 9 9 12 12 11 11 9 10 9 7 7 6 7 12 13 12 12 12 12 12 11 11 10 9 8 7 7 7 6 4 2 2 2 3
4 5 1 3 4 5 3 2 2 4 5 4 4 7 12 15 12 12 10 7 9 10 8 9 8 7 7 6 10 11 12 12 12 10 12 10 5 4 5 7 8 7 7 5 4 2 0 2 4
4 3 4 4 5 5 5 1 2 4 5 4 6 7 14 15 14 15 14 12 12 12 11 9 9 9 8 7 6 4 5 5 5 4 5 4 3 3 5 7 8 8 6 5 4 2 2 2 3
3 4 4 6 9 7 4 3 1 6 4 9 15 15 16 16 15 16 16 15 15 14 13 12 10 10 9 5 6 3 3 4 4 5 5 4 3 2 3 2 3 3 4 2 2 1 2 2 1
1 4 4 5 7 5 3 2 1 4 7 13 18 21 20 18 17 17 16 15 13 13 14 14 13 11 9 7 6 5 4 4 4 5 6 4 3 3 3 2 2 2 1 2 1 1 3 3 1
2 3 4 4 4 6 5 4 3 3 3 12 16 17 18 19 18 17 16 15 13 15 15 15 14 13 10 8 7 7 6 6 6 5 6 6 5 5 4 3 3 3 2 2 2 2 3 3 4
3 4 5 5 4 4 4 6 3 5 2 9 16 16 17 18 18 14 14 15 15 16 16 15 16 14 12 10 8 7 7 6 6 5 7 9 6 6 5 4 4 3 3 2 2 3 3 4 5
3 4 6 4 3 4 3 6 6 7 2 6 11 13 14 15 15 17 19 18 17 18 17 17 17 16 14 12 10 8 7 7 6 6 8 9 9 8 6 5 4 4 3 3 2 3 3 4 5
4 3 4 5 4 5 1 8 8 5 2 4 7 8 10 12 15 16 18 17 17 16 17 17 16 16 15 12 10 7 8 7 6 6 6 9 10 9 7 6 6 5 4 3 4 3 3 3 4
3 2 4 6 4 4 1 7 7 5 4 4 5 6 8 9 11 13 16 17 17 17 17 17 15 16 15 12 9 7 7 8 7 6 5 6 8 9 8 6 6 5 4 3 4 3 3 3 3
3 3 4 4 4 3 3 6 8 6 4 5 5 5 5 6 9 11 13 15 15 15 16 16 13 13 12 8 6 4 5 5 5 6 6 6 6 7 7 6 6 6 5 4 3 4 3 3 3
3 4 6 5 3 3 5 7 10 8 5 6 6 4 5 5 5 4 10 12 12 12 12 12 11 11 9 7 6 6 5 5 4 4 6 6 6 6 6 5 5 5 5 6 6 4 4 2 2
2 3 4 4 3 3 5 9 9 7 6 6 6 6 6 5 3 1 5 9 11 12 11 11 10 10 10 8 6 4 4 3 3 2 4 5 6 6 7 6 6 6 5 5 5 5 4 2 2
3 4 4 4 4 4 5 8 7 6 5 6 6 6 6 6 5 4 6 8 9 10 10 10 9 9 8 7 5 4 4 3 2 2 3 4 5 5 5 6 6 6 6 6 6 6 6 4 2
5 6 5 2 1 4 2 6 9 7 8 8 7 6 6 6 5 5 7 8 9 8 8 9 9 8 7 8 7 7 5 5 5 4 3 3 4 5 5 5 6 6 5 6 6 6 4 6 4
6 3 2 1 1 2 2 3 8 7 10 13 11 8 4 5 7 8 8 9 9 8 8 8 9 8 7 7 8 7 5 4 3 3 4 4 4 4 5 5 5 5 5 6 6 5 5 5 5
1 4 4 4 4 2 4 4 5 7 11 16 16 13 7 2 3 6 8 9 8 8 7 9 9 7 7 7 6 7 6 5 4 4 4 4 3 3 4 5 5 5 5 6 6 6 6 5 5
6 5 4 4 2 5 3 2 1 7 11 13 16 16 11 6 2 3 6 8 8 8 7 7 9 7 6 6 6 6 6 6 6 5 5 4 3 3 5 5 5 5 5 6 6 6 6 6 6
3 3 3 3 4 4 3 1 2 7 11 13 14 15 16 12 8 5 5 5 6 6 5 6 7 6 6 5 5 4 5 4 3 4 4 4 4 4 4 5 6 6 6 6 6 5 6 5 6
4 2 1 3 2 3 4 0 2 13 16 18 18 17 16 14 11 9 7 4 4 5 4 5 5 5 5 5 4 4 5 4 4 4 4 3 3 3 4 5 5 5 6 6 6 5 6 5 6
3 1 3 2 0 2 3 4 7 14 16 17 18 16 14 11 10 9 8 6 4 2 0 2 4 5 4 5 4 4 5 5 4 4 4 4 4 3 4 5 5 5 5 6 6 5 5 6 5
5 4 2 1 1 1 1 2 5 9 11 13 14 13 11 9 7 7 5 4 2 2 2 3 3 4 4 4 4 4 4 4 4 3 4 4 3 4 4 5 5 5 5 5 5 5 5 6 6
3 2 1 2 0 0 1 1 5 8 9 10 11 11 10 8 5 3 4 4 4 4 3 3 2 3 4 4 4 4 4 3 4 4 3 4 4 4 4 4 5 5 5 5 5 5 5 6 6
Wind_Direction
290 297 116 80 51 47 86 160 135 97 74 74 88 94 96 92 111 138 151 149 141 150 158 157 154 148 141 135 131 128 127 127 128 128 126 124 120 117 112 107 101 97 93 89 87 83 83 85 87
311 315 105 61 73 67 329 172 118 114 125 119 94 101 95 84 101 111 123 144 144 150 154 156 155 150 145 140 135 132 130 129 130 131 131 130 127 123 118 113 108 103 99 97 93 89 84 84 82
288 247 88 67 106 167 178 197 152 117 118 120 96 76 95 122 118 126 144 141 143 148 151 157 156 153 150 146 142 138 135 134 135 136 137 136 133 128 123 118 111 108 103 101 97 94 88 81 77
4 43 55 64 250 210 175 197 158 108 89 90 98 64 58 126 136 131 140 143 145 149 152 158 157 156 155 152 149 145 143 142 141 142 141 139 136 132 127 122 118 114 111 107 103 97 90 80 72
89 68 43 352 285 234 163 163 130 118 113 98 95 82 41 47 116 131 143 145 145 147 151 158 157 158 157 156 154 151 150 149 147 145 144 144 143 138 132 127 123 121 120 116 109 99 89 79 68
57 61 52 332 312 292 129 129 112 102 113 114 108 109 121 140 129 141 146 147 147 149 153 156 158 158 159 158 157 156 155 154 152 150 149 148 146 141 137 133 129 126 126 128 123 111 91 75 66
93 71 2 314 309 336 150 124 114 124 143 153 135 111 141 175 152 145 147 145 146 149 152 151 156 159 161 161 161 161 159 158 157 156 154 152 149 146 142 140 139 136 137 141 140 129 94 70 60
119 92 8 337 316 294 240 113 137 137 145 143 132 135 165 191 159 143 144 145 147 150 155 155 154 153 154 160 164 164 163 163 161 160 158 156 154 151 149 146 149 150 153 153 153 146 101 66 47
86 80 39 320 309 300 322 96 142 124 120 130 136 152 166 163 149 141 143 144 154 160 163 162 162 159 155 159 169 166 166 167 163 162 162 156 144 146 148 156 162 163 162 160 164 171 356 14 22
96 125 189 213 249 267 287 224 140 93 97 89 95 119 147 155 155 156 161 165 170 173 175 171 171 168 164 169 155 156 161 160 156 157 154 142 151 170 167 176 172 174 174 175 185 215 299 356 16
152 180 202 234 249 257 267 273 149 126 153 168 157 157 160 166 168 169 174 177 179 177 177 176 175 173 172 163 155 159 154 157 162 166 161 157 164 176 167 175 178 183 187 189 225 250 291 298 346
229 229 203 226 254 264 263 272 273 184 198 179 168 165 167 174 178 180 181 183 180 176 180 177 176 175 175 165 166 168 167 173 177 182 175 164 164 170 176 186 195 200 203 207 225 232 246 239 223
267 255 261 263 273 272 277 276 259 255 204 161 169 170 176 181 185 187 185 183 180 181 181 177 176 176 174 168 172 175 179 185 188 184 183 176 172 179 185 193 205 214 213 207 207 217 214 181 158
257 286 288 285 290 293 279 279 279 271 222 161 174 183 188 188 187 185 186 186 185 185 182 178 178 177 175 176 178 180 186 188 189 190 188 184 182 183 184 191 205 221 221 214 198 183 144 122 128
305 324 320 308 302 292 311 293 261 262 248 180 186 195 198 200 190 187 189 188 186 186 182 180 180 178 179 182 183 182 188 189 193 195 189 187 186 187 185 187 197 216 211 187 157 142 114 108 114
342 343 307 305 345 316 292 262 268 311 320 235 214 209 208 213 203 196 190 188 185 182 181 182 182 181 183 184 186 182 186 188 194 194 187 187 187 186 181 184 193 197 179 162 147 139 111 109 117
355 308 284 303 351 336 302 260 284 318 337 288 252 229 221 220 217 206 193 187 184 181 180 182 183 181 184 183 183 180 179 185 189 189 188 187 185 182 178 183 189 176 166 163 157 139 130 130 132
257 267 280 286 311 331 308 276 290 298 313 295 286 274 260 232 224 211 195 187 183 181 178 180 179 177 177 171 168 166 169 181 184 186 189 182 182 179 178 181 185 168 160 162 152 141 126 136 146
230 252 270 270 281 302 276 277 282 285 284 283 286 285 276 270 267 215 188 180 174 174 172 174 171 170 165 165 165 167 178 181 186 192 184 178 178 177 181 183 179 171 168 168 153 134 131 125 118
236 270 281 285 292 293 281 279 274 268 256 250 256 254 248 253 274 184 154 160 162 167 170 168 167 166 169 171 167 162 152 155 170 184 185 181 175 179 187 180 178 176 164 158 155 141 133 140 138
257 235 238 262 316 336 322 304 299 302 314 311 282 250 232 231 214 164 137 141 141 147 158 164 161 160 162 153 129 111 92 83 115 188 201 194 184 184 181 177 173 176 168 173 171 160 152 157 168
248 237 213 224 354 299 348 300 299 312 331 334 322 292 240 218 190 153 136 127 126 132 140 143 145 148 152 147 150 155 162 175 194 186 192 193 187 185 183 178 174 175 174 173 177 171 161 151 162
224 223 198 192 159 303 287 239 293 345 349 338 332 317 274 213 178 159 144 128 123 129 134 135 135 140 149 154 160 163 169 179 170 166 182 195 196 193 188 179 171 175 176 176 174 175 173 165 165
92 51 33 45 72 297 252 203 308 0 348 346 346 347 337 305 177 153 134 125 126 126 128 131 132 138 146 150 156 164 171 174 172 183 188 194 196 195 194 183 180 179 178 178 179 183 184 183 173
31 62 15 349 359 254 264 173 14 358 2 2 358 358 359 6 26 108 118 121 125 128 132 133 134 142 150 152 163 174 178 181 188 188 190 187 191 197 196 186 187 184 184 183 178 181 188 186 184
318 130 173 228 242 282 313 204 98 9 5 6 7 9 15 17 26 46 84 103 111 115 131 139 143 151 159 164 177 183 180 179 190 190 184 191 198 203 190 184 186 185 182 185 184 187 192 192 197
357 341 215 175 251 274 279 6 27 2 4 5 4 8 10 10 18 21 29 50 105 127 151 154 156 166 172 174 182 191 186 182 190 193 187 194 199 197 185 182 181 183 182 182 179 192 198 196 201
26 34 52 80 215 261 315 32 355 347 347 349 352 355 356 1 10 15 14 11 9 3 263 167 169 180 185 179 182 182 181 181 183 179 189 195 194 185 169 175 179 180 179 179 181 187 194 193 200
11 34 46 94 144 164 337 28 355 329 330 334 334 334 335 351 360 1 352 348 333 308 277 242 204 194 192 187 178 163 168 169 167 172 189 187 180 176 176 178 177 178 179 176 179 186 185 195 201
57 43 87 129 101 106 126 3 335 322 322 330 328 332 334 336 336 323 303 284 274 266 267 271 246 218 211 197 178 171 167 162 169 181 186 176 179 187 186 174 173 179 179 177 182 189 191 196 201